Weather History for PHNY - August, 2013

Change the Weather History Date:

Sunday, August 18, 2013

  Actual Average Record
Temperature  
Mean Temperature 75 °F -  
Max Temperature 82 °F 83 °F 86 °F (1998)
Min Temperature 68 °F 66 °F 61 °F (1955)
Cooling Degree Days 10    
Growing Degree Days 25 (Base 50)    
Moisture  
Dew Point 65 °F    
Average Humidity 71    
Maximum Humidity 90    
Minimum Humidity 51    
Precipitation  
Precipitation 0.00 in - - ()
Sea Level Pressure  
Sea Level Pressure 30.01 in    
Wind  
Wind Speed 9 mph (NE)    
Max Wind Speed 21 mph    
Max Gust Speed 22 mph    
Visibility 10 miles    
Events      
Averages and records for this station are not official NWS values.
T = Trace of Precipitation, MM = Missing Value Source: NWS Daily Summary

Daily Weather History Graph

Daily Weather History Graph

Search for Another Location

Airport or City:

Trip Planner

Search our weather history database for the weather conditions in past years. The results will help you decide how hot, cold, wet, or windy it might be!

Date:

Astronomy

Aug. 18, 2013 Rise Set
Actual Time 6:07 AM HST 6:54 PM HST
Civil Twilight 5:45 AM HST 7:17 PM HST
Nautical Twilight 5:18 AM HST 7:44 PM HST
Astronomical Twilight 4:50 AM HST 8:11 PM HST
Moon 5:03 PM HST (8/18) 3:39 AM HST (8/18)
Length of Visible Light 13h 32m
Length of Day
12h 46m
Waxing Gibbous, 93% of the Moon is Illuminated
Aug 18
Waxing Gibbous
Aug 20
Full
Aug 27
Last Quarter
Sep 5
New
Sep 12
First Quarter

Hourly Weather History & Observations

Time (HST) Temp. Heat Index Dew Point Humidity Pressure Visibility Wind Dir Wind Speed Gust Speed Precip Events Conditions
12:56 AM 70.0 °F - 65.8 °F 87% 30.00 in 10.0 mi NNE 9.2 mph - N/A   Clear
1:34 AM 69.8 °F - 64.4 °F 83% 30.06 in - East 4.6 mph - N/A   Mostly Cloudy
1:56 AM 68.9 °F - 64.9 °F 87% 29.99 in 10.0 mi NE 5.8 mph - N/A   Mostly Cloudy
2:19 AM 69.8 °F - 64.4 °F 83% 30.05 in 10.0 mi NE 5.8 mph - N/A   Scattered Clouds
2:56 AM 68.9 °F - 64.9 °F 87% 29.97 in 10.0 mi NNE 6.9 mph - N/A   Clear
3:56 AM 68.0 °F - 64.9 °F 90% 29.97 in 10.0 mi NNE 8.1 mph - N/A   Clear
4:56 AM 68.9 °F - 63.9 °F 84% 29.97 in 10.0 mi NNE 9.2 mph - N/A   Clear
5:56 AM 68.0 °F - 63.0 °F 84% 29.99 in 10.0 mi NE 8.1 mph - N/A   Clear
6:56 AM 70.9 °F - 64.9 °F 81% 30.01 in 10.0 mi NNE 8.1 mph - N/A   Clear
7:56 AM 75.9 °F - 65.8 °F 71% 30.01 in 10.0 mi NE 11.5 mph - N/A   Clear
8:56 AM 79.9 °F - 65.8 °F 62% 30.01 in 10.0 mi Variable 5.8 mph - N/A   Clear
9:56 AM 82.9 °F 84.2 °F 63.9 °F 52% 30.01 in 10.0 mi Variable 4.6 mph - N/A   Mostly Cloudy
10:28 AM 82.4 °F 83.9 °F 64.4 °F 54% 30.09 in 10.0 mi SW 6.9 mph - N/A   Mostly Cloudy
10:47 AM 82.4 °F 83.4 °F 62.6 °F 51% 30.09 in 10.0 mi SSE 11.5 mph - N/A   Mostly Cloudy
10:56 AM 82.9 °F 84.0 °F 63.0 °F 51% 30.01 in 10.0 mi SE 8.1 mph - N/A   Partly Cloudy
11:56 AM 81.0 °F 82.5 °F 63.9 °F 56% 30.01 in 10.0 mi SSE 8.1 mph - N/A   Scattered Clouds
12:30 PM 80.6 °F 82.3 °F 64.4 °F 58% 30.08 in 10.0 mi NE 8.1 mph - N/A   Mostly Cloudy
12:56 PM 81.9 °F 84.8 °F 68.0 °F 63% 29.99 in 10.0 mi NNE 12.7 mph - N/A   Mostly Cloudy
1:56 PM 80.6 °F 82.7 °F 66.2 °F 61% 30.04 in 10.0 mi NNE 13.8 mph - N/A   Mostly Cloudy
2:56 PM 79.9 °F - 65.8 °F 62% 29.96 in 10.0 mi NE 20.7 mph - N/A   Mostly Cloudy
3:56 PM 79.9 °F - 65.8 °F 62% 29.97 in 10.0 mi East 10.4 mph - N/A   Mostly Cloudy
4:04 PM 80.6 °F 82.3 °F 64.4 °F 58% 30.03 in 10.0 mi Variable 4.6 mph - N/A   Mostly Cloudy
4:31 PM 80.6 °F 82.7 °F 66.2 °F 61% 30.03 in 10.0 mi NNE 13.8 mph - N/A   Mostly Cloudy
4:56 PM 77.9 °F - 66.9 °F 69% 29.96 in 10.0 mi NE 17.3 mph 21.9 mph N/A   Partly Cloudy
5:56 PM 77.9 °F - 64.9 °F 64% 29.97 in 10.0 mi NE 17.3 mph - N/A   Clear
6:56 PM 73.9 °F - 66.9 °F 79% 29.99 in 10.0 mi NNE 11.5 mph - N/A   Partly Cloudy
7:56 PM 72.9 °F - 66.9 °F 82% 30.00 in 10.0 mi NE 10.4 mph - N/A   Partly Cloudy
8:56 PM 70.9 °F - 64.9 °F 81% 30.01 in 10.0 mi NNE 9.2 mph - N/A   Clear
9:56 PM 72.0 °F - 64.9 °F 78% 30.02 in 10.0 mi NNE 9.2 mph - N/A   Clear
10:56 PM 70.9 °F - 64.9 °F 81% 30.03 in 10.0 mi NNE 8.1 mph - N/A   Partly Cloudy
11:56 PM 70.0 °F - 63.9 °F 81% 30.03 in 10.0 mi SSE 6.9 mph - N/A   Partly Cloudy